Regional Weather Roundup
Issued by NWS

Home | Current Version | Previous Version | Graphics & Text | Print | Product List | Glossary On
Versions: 1 2 3 4 5 6 7 8 9 10 11 12 13 14 15 16 17 18 19 20 21 22 23 24 25 26 27 28 29 30 31 32 33 34 35 36 37 38 39 40 41 42 43 44 45 46 47 48 49 50
000
ASUS44 KMEG 260500
RWRTN
TENNESSEE HOURLY STATE WEATHER ROUNDUP
NATIONAL WEATHER SERVICE MEMPHIS TN
1200 AM CDT SUN OCT 26 2014

TNZ002-004-019-021-049-052-054-088>092-260600-
WEST TENNESSEE

CITY           SKY/WX    TMP DP  RH WIND       PRES   REMARKS
MEMPHIS INTL   CLEAR     68  63  84 SW3       30.02F
NWS MEMPHIS      N/A     63 N/A N/A MISG        N/A
JACKSON        CLEAR     61  59  93 S3        30.02F
DYERSBURG      CLEAR     61  52  72 CALM      30.02S
UNION CITY     CLOUDY    57  55  94 CALM      30.00F VSB 1/4
PARIS            N/A     55  55 100 CALM      30.02S VSB 1/4
LEXINGTON        N/A     57  57 100 CALM      30.02F VSB 1/2
SAVANNAH       CLEAR     57  57 100 CALM      30.04F
$$

TNZ008-025-027-028-033-062-065-066-260600-
NORTH MIDDLE TENNESSEE

CITY           SKY/WX    TMP DP  RH WIND       PRES   REMARKS
NASHVILLE      CLEAR     59  58  96 S6        30.02F FOG
CLARKSVILLE    FOG       56  56 100 CALM      30.01S VSB 1/4
SMYRNA         FOG       55  55 100 CALM      30.03S VSB<1/4
COOKEVILLE     MOCLDY    46  46 100 CALM      30.02F VSB 1/4
CROSSVILLE     CLEAR     57  53  86 CALM      30.05F
$$

TNZ061-075-076-078-094-096-097-260600-
SOUTH MIDDLE TENNESSEE

CITY           SKY/WX    TMP DP  RH WIND       PRES   REMARKS
WINCHESTER     CLOUDY    55  54  94 CALM      30.05F
SHELBYVILLE      N/A     55  55 100 CALM      30.04F VSB 3/4
$$

TNZ017-018-042-046-047-260600-
NORTHEAST TENNESSEE

CITY           SKY/WX    TMP DP  RH WIND       PRES   REMARKS
TRI CITIES     PTCLDY    53  48  83 W5        29.99F
ELIZABETHTON   CLOUDY    61  48  63 W7        30.00S
$$

TNZ012-013-036-069-073-074-260600-
CENTRAL EAST TENNESSEE

CITY           SKY/WX    TMP DP  RH WIND       PRES   REMARKS
KNOXVILLE      CLEAR     57  50  77 CALM      30.01F
OAK RIDGE      CLEAR     52  50  93 CALM      30.03F
GATLINBURG     CLEAR     52  48  87 CALM      30.01F
MORRISTOWN     CLEAR     55  48  76 SW7       30.02F
$$

TNZ083-085-099-260600-
SOUTHEAST TENNESSEE

CITY           SKY/WX    TMP DP  RH WIND       PRES   REMARKS
CHATTANOOGA    CLEAR     58  55  90 CALM      30.03F
$$

SKY/WX REPORTED AS FAIR MEANS FEW OR NO CLOUDS BELOW
12 THOUSAND FEET.




USA.gov is the U.S. government's official web portal to all federal, state and local government web resources and services.